Flag for U.S.A. Weather past 2 weeks in Springfield, Missouri, U.S.A.

Now
66 °F

Passing clouds.


Feels Like: 66 °F
Forecast: 66 / 78 °F
Wind: 10 mph from South

Location: Springfield Regional Airport

Current Time: May 29, 2015 at 5:43:36 AM

Latest Report: May 29, 2015 at 4:52 AM


Visibility: 10 mi

Pressure: 29.96 "Hg

Humidity: 84%

Dew point: 61 °F

Location of SpringfieldLocation

Historic Weather in Springfield — Graph

°F

Springfield temperature yesterday

Maximum temperature yesterday: 79 °F (at 1:52 PM)
Minimum temperature yesterday: 66 °F (at 3:52 AM)
Average temperature yesterday: 71 °F

Past Weeks' High & Low Weather Summary

 TemperatureHumidityPressure
High83 °F (May 27, 3:52 PM)97% (May 18, 4:52 AM)30.30 "Hg (May 18, 4:52 AM)
Low43 °F (May 22, 3:52 AM)45% (May 21, 6:52 PM)29.76 "Hg (May 26, 12:52 AM)
Average67 °F76%30.03 "Hg
* Reported May 14 3:52 AM — May 29 3:52 AM, Springfield, Weather by CustomWeather, © 2015

Note: Actual official high and low records may vary slightly from our data, if they occured in-between our weather recording intervals... More about our weather records

Advertising

Springfield weather history for previous 24 hours

 ConditionsComfort  
Time TempWeatherWind HumidityBarometerVisibility
3:52 AM
Fri, May 29
66 °FPartly cloudy.8 mph84%29.95 "Hg10 mi
2:52 AM66 °FClear.12 mph84%29.95 "Hg10 mi
1:52 AM66 °FClear.12 mph87%29.94 "Hg10 mi
12:52 AM67 °FClear.10 mph87%29.98 "Hg10 mi
11:52 PM
Thu, May 28
68 °FPartly cloudy.10 mph87%30.01 "Hg10 mi
10:52 PM69 °FPassing clouds.12 mph87%30.01 "Hg10 mi
9:52 PM70 °FPassing clouds.9 mph84%29.98 "Hg10 mi
8:52 PM69 °FSunny.7 mph87%29.95 "Hg10 mi
7:52 PM71 °FPassing clouds.8 mph87%29.95 "Hg10 mi
6:52 PM71 °FSunny.7 mph87%29.97 "Hg10 mi
6:03 PM70 °FBroken clouds.12 mph90%30.01 "Hg10 mi
4:52 PM69 °FScattered clouds.12 mph90%30.01 "Hg10 mi
3:52 PM71 °FLight rain. Cloudy.9 mph84%30.02 "Hg10 mi
2:52 PM77 °FThundershowers. Scattered clouds.14 mph74%30.02 "Hg10 mi
1:52 PM79 °FScattered clouds.12 mph69%30.04 "Hg10 mi
12:52 PM75 °FThundershowers. Broken clouds.10 mph79%30.09 "Hg10 mi
11:52 AM76 °FPassing clouds.14 mph77%30.09 "Hg10 mi
10:52 AM74 °FMore clouds than sun.12 mph82%30.09 "Hg10 mi
9:52 AM73 °FOvercast.10 mph81%30.09 "Hg10 mi
8:52 AM71 °FLow clouds.9 mph87%30.08 "Hg10 mi
7:52 AM70 °FSunny.8 mph90%30.08 "Hg10 mi
6:52 AM68 °FClear.8 mph90%30.08 "Hg10 mi
5:52 AM67 °FClear.8 mph90%30.07 "Hg10 mi
Weather by CustomWeather, © 2015

See weather overviewHow to use our weather pages